Hill City, KS

10:29 PM CDT on May 24, 2018 (GMT -0500)
Hill City Municipal

Weather History for KHLC - October, 2012

Change the Weather History Date:

Wednesday, October 17, 2012

  Actual Average Record
Temperature  
Mean Temperature 56 °F 54 °F  
Max Temperature 67 °F 68 °F 99 °F (1926)
Min Temperature 45 °F 39 °F 17 °F (1922)
Degree Days  
Heating Degree Days 10    
Growing Degree Days 4 (Base 50)    
Moisture  
Dew Point 30 °F    
Average Humidity 37    
Maximum Humidity 66    
Minimum Humidity 18    
Precipitation  
Precipitation T in 0.05 in 0.22 in (2011)
Month to date precipitation 1.01 0.91  
Year to date precipitation 9.72 20.67  
Sea Level Pressure  
Sea Level Pressure 29.67 in    
Wind  
Wind Speed 15 mph (NW)    
Max Wind Speed 31 mph    
Max Gust Speed 41 mph    
Visibility 10 miles    
Events Rain    
T = Trace of Precipitation, MM = Missing Value Source: NWS Daily Summary

Daily Weather History Graph

Daily Weather History Graph

Search for Another Location

Airport or City:

Astronomy

Oct. 17, 2012 Rise Set
Actual Time 7:51 AM CDT 6:56 PM CDT
Civil Twilight 7:24 AM CDT 7:23 PM CDT
Nautical Twilight 6:53 AM CDT 7:54 PM CDT
Astronomical Twilight 6:22 AM CDT 8:25 PM CDT
Moon 10:27 AM CDT (10/17) 8:35 PM CDT (10/17)
Length of Visible Light 11h 59m
Length of Day
11h 04m
Waxing Crescent, 7% of the Moon is Illuminated
Oct 17
Waxing Crescent
Oct 21
First Quarter
Oct 29
Full
Nov 6
Last Quarter
Nov 13
New

Hourly Weather History & Observations

Time (CDT) Temp. Windchill Dew Point Humidity Pressure Visibility Wind Dir Wind Speed Gust Speed Precip Events Conditions
12:53 AM 63.0 °F - 45.0 °F 52% 29.40 in 10.0 mi Calm Calm - N/A   Clear
1:53 AM 64.0 °F - 45.0 °F 50% 29.44 in 10.0 mi NNW 13.8 mph 17.3 mph N/A   Partly Cloudy
2:53 AM 64.9 °F - 45.0 °F 48% 29.47 in 10.0 mi NW 15.0 mph 21.9 mph N/A   Partly Cloudy
3:53 AM 64.9 °F - 41.0 °F 42% 29.45 in 10.0 mi NNW 17.3 mph 25.3 mph N/A   Clear
4:53 AM 64.0 °F - 44.1 °F 48% 29.50 in 10.0 mi NW 31.1 mph 39.1 mph 0.00 in Rain Light Rain
5:53 AM 59.0 °F - 46.9 °F 64% 29.51 in 10.0 mi NNW 23.0 mph 28.8 mph 0.00 in Rain Light Rain
6:53 AM 55.9 °F - 42.1 °F 60% 29.57 in 10.0 mi NW 13.8 mph 23.0 mph N/A   Clear
7:53 AM 53.1 °F - 42.1 °F 66% 29.62 in 10.0 mi NW 13.8 mph - N/A   Clear
8:53 AM 54.0 °F - 37.9 °F 55% 29.64 in 10.0 mi NW 17.3 mph 24.2 mph N/A   Clear
9:53 AM 59.0 °F - 30.9 °F 35% 29.68 in 10.0 mi NNW 21.9 mph 29.9 mph N/A   Clear
10:53 AM 59.0 °F - 28.9 °F 32% 29.71 in 10.0 mi NW 17.3 mph 29.9 mph N/A   Overcast
11:53 AM 59.0 °F - 26.1 °F 28% 29.72 in 10.0 mi NW 24.2 mph 36.8 mph N/A   Scattered Clouds
12:53 PM 61.0 °F - 26.1 °F 26% 29.71 in 10.0 mi NW 20.7 mph 34.5 mph N/A   Scattered Clouds
1:53 PM 62.1 °F - 26.1 °F 25% 29.71 in 10.0 mi NW 20.7 mph 32.2 mph N/A   Clear
2:53 PM 64.9 °F - 19.9 °F 18% 29.69 in 10.0 mi NW 26.5 mph 39.1 mph N/A   Scattered Clouds
3:53 PM 63.0 °F - 19.9 °F 19% 29.71 in 10.0 mi NW 24.2 mph 41.4 mph N/A   Scattered Clouds
4:53 PM 62.1 °F - 17.1 °F 18% 29.73 in 10.0 mi NW 23.0 mph 39.1 mph N/A   Partly Cloudy
5:53 PM 61.0 °F - 17.1 °F 18% 29.75 in 10.0 mi NNW 25.3 mph 33.4 mph N/A   Mostly Cloudy
6:53 PM 57.0 °F - 18.0 °F 22% 29.78 in 10.0 mi NW 15.0 mph 25.3 mph N/A   Clear
7:53 PM 52.0 °F - 18.0 °F 26% 29.80 in 10.0 mi NW 8.1 mph - N/A   Clear
8:53 PM 48.9 °F - 19.0 °F 31% 29.82 in 10.0 mi WNW 9.2 mph - N/A   Clear
9:53 PM 48.9 °F - 19.9 °F 32% 29.83 in 10.0 mi WNW 8.1 mph - N/A   Scattered Clouds
10:53 PM 45.0 °F 40.1 °F 21.9 °F 40% 29.86 in 10.0 mi West 9.2 mph - N/A   Partly Cloudy
11:53 PM 46.0 °F 41.4 °F 23.0 °F 40% 29.87 in 10.0 mi WNW 9.2 mph - N/A   Mostly Cloudy